TimeAKDT,TemperatureF,Dew PointF,Humidity,Sea Level PressureIn,VisibilityMPH,Wind Direction,Wind SpeedMPH,Gust SpeedMPH,PrecipitationIn,Events,Conditions,WindDirDegrees,DateUTC
12:53 AM,42.1,28.0,58,29.37,10.0,NNE,5.8,-,N/A,,Mostly Cloudy,30,2012-05-11 08:53:00
1:53 AM,39.9,28.0,63,29.36,10.0,NE,5.8,-,N/A,,Mostly Cloudy,50,2012-05-11 09:53:00
2:53 AM,42.1,28.0,58,29.36,10.0,NNE,3.5,-,N/A,,Mostly Cloudy,20,2012-05-11 10:53:00
3:53 AM,41.0,28.9,62,29.34,10.0,NNE,5.8,-,N/A,,Mostly Cloudy,20,2012-05-11 11:53:00
4:53 AM,42.1,28.0,58,29.34,10.0,East,4.6,-,N/A,,Mostly Cloudy,80,2012-05-11 12:53:00
5:53 AM,43.0,27.0,53,29.33,10.0,NNE,6.9,-,N/A,,Mostly Cloudy,30,2012-05-11 13:53:00
6:53 AM,44.1,26.1,49,29.32,10.0,East,8.1,-,N/A,,Mostly Cloudy,80,2012-05-11 14:53:00
7:53 AM,46.0,26.1,46,29.32,10.0,East,8.1,-,N/A,,Mostly Cloudy,80,2012-05-11 15:53:00
8:53 AM,48.0,26.1,42,29.32,10.0,East,9.2,-,N/A,,Mostly Cloudy,90,2012-05-11 16:53:00
9:53 AM,54.0,25.0,33,29.31,10.0,SE,11.5,17.3,N/A,,Mostly Cloudy,130,2012-05-11 17:53:00
10:53 AM,57.9,19.0,22,29.31,10.0,South,15.0,33.4,N/A,,Mostly Cloudy,170,2012-05-11 18:53:00
11:53 AM,57.0,18.0,22,29.32,10.0,South,13.8,25.3,N/A,,Mostly Cloudy,180,2012-05-11 19:53:00
12:53 PM,60.1,17.1,19,29.33,10.0,South,20.7,29.9,N/A,,Mostly Cloudy,190,2012-05-11 20:53:00
1:53 PM,60.1,19.0,20,29.35,10.0,South,15.0,29.9,N/A,,Mostly Cloudy,190,2012-05-11 21:53:00
2:53 PM,55.0,25.0,31,29.40,10.0,SW,13.8,26.5,0.00,,Scattered Clouds,230,2012-05-11 22:53:00
3:53 PM,55.0,21.0,27,29.42,10.0,SSW,15.0,26.5,N/A,,Scattered Clouds,210,2012-05-11 23:53:00
4:53 PM,55.0,19.9,25,29.43,10.0,SSW,18.4,29.9,N/A,,Mostly Cloudy,210,2012-05-12 00:53:00
5:53 PM,54.0,18.0,24,29.44,10.0,SSW,17.3,25.3,N/A,,Mostly Cloudy,200,2012-05-12 01:53:00
6:53 PM,54.0,19.0,25,29.46,10.0,SW,6.9,18.4,N/A,,Mostly Cloudy,220,2012-05-12 02:53:00
7:53 PM,53.1,19.0,26,29.47,10.0,SSW,12.7,20.7,N/A,,Scattered Clouds,200,2012-05-12 03:53:00
8:53 PM,51.1,21.0,31,29.49,10.0,WSW,12.7,19.6,N/A,,Scattered Clouds,240,2012-05-12 04:53:00
9:53 PM,50.0,21.9,33,29.51,10.0,WSW,3.5,-,N/A,,Mostly Cloudy,240,2012-05-12 05:53:00
10:53 PM,48.0,21.9,36,29.53,10.0,WSW,3.5,-,N/A,,Mostly Cloudy,240,2012-05-12 06:53:00
11:53 PM,46.0,24.1,42,29.55,10.0,West,5.8,-,N/A,,Mostly Cloudy,260,2012-05-12 07:53:00